This is the latest recevied weather packets stored in our database for station/object W9PEM-13. If no packets are shown the sender has not sent any weather packets the latest 1 day(s).
| Time | Temp. | Humidity | Pressure | Rain* | Wind** | Luminosity | Snow |
|---|---|---|---|---|---|---|---|
| 1778031214 | 8.89° C | 47% | 979 hPa | 0 mm | 1.34 m/s, 58° | 0 W/m² | - |
| 1778030937 | 9.44° C | 46% | 978.8 hPa | 0 mm | 0.89 m/s, 77° | 0 W/m² | - |
| 1778030848 | 9.44° C | 46% | 978.8 hPa | 0 mm | 0.89 m/s, 77° | 0 W/m² | - |
| 1778030613 | 9.44° C | 46% | 978.8 hPa | 0 mm | 0.89 m/s, 77° | 0 W/m² | - |
| 1778030337 | 10° C | 43% | 978.8 hPa | 0 mm | 0.89 m/s, 88° | 0 W/m² | - |
| 1778030013 | 10° C | 43% | 978.8 hPa | 0 mm | 0.89 m/s, 88° | 0 W/m² | - |
| 1778029484 | 10° C | 42% | 978.6 hPa | 0 mm | 0.89 m/s, 93° | 2 W/m² | - |
| 1778029413 | 10° C | 42% | 978.6 hPa | 0 mm | 0.89 m/s, 93° | 2 W/m² | - |
| 1778028847 | 10.56° C | 41% | 978.5 hPa | 0 mm | 0.45 m/s, 353° | 4 W/m² | - |
| 1778028813 | 10.56° C | 41% | 978.5 hPa | 0 mm | 0.45 m/s, 353° | 4 W/m² | - |
| 1778028492 | 10.56° C | 40% | 978.3 hPa | 0 mm | 0.89 m/s, 0° | 9 W/m² | - |
| 1778028213 | 10.56° C | 40% | 978.3 hPa | 0 mm | 0.89 m/s, 0° | 9 W/m² | - |
| 1778027647 | 10.56° C | 39% | 978.2 hPa | 0 mm | 0.45 m/s, 296° | 20 W/m² | - |
| 1778027613 | 10.56° C | 39% | 978.2 hPa | 0 mm | 0.45 m/s, 296° | 20 W/m² | - |
| 1778027051 | 11.11° C | 38% | 978.2 hPa | 0 mm | 0.45 m/s, 232° | 32 W/m² | - |
| 1778027013 | 11.11° C | 38% | 978.2 hPa | 0 mm | 0.45 m/s, 232° | 32 W/m² | - |
| 1778026727 | 11.11° C | 38% | 978.1 hPa | 0 mm | 0.89 m/s, 294° | 42 W/m² | - |
| 1778026413 | 11.11° C | 38% | 978.1 hPa | 0 mm | 0.89 m/s, 294° | 42 W/m² | - |
| 1778025882 | 11.67° C | 37% | 978.2 hPa | 0 mm | 1.79 m/s, 272° | 64 W/m² | - |
| 1778025813 | 11.67° C | 37% | 978.2 hPa | 0 mm | 1.79 m/s, 272° | 64 W/m² | - |
| 1778025350 | 11.67° C | 37% | 978.1 hPa | 0 mm | 1.79 m/s, 339° | 67 W/m² | - |
| 1778025213 | 11.67° C | 37% | 978.1 hPa | 0 mm | 1.79 m/s, 339° | 67 W/m² | - |
| 1778024803 | 12.22° C | 36% | 978.2 hPa | 0 mm | 0.89 m/s, 304° | 96 W/m² | - |
| 1778024744 | 12.22° C | 36% | 978.2 hPa | 0 mm | 0.89 m/s, 304° | 96 W/m² | - |
| 1778024613 | 12.22° C | 36% | 978.2 hPa | 0 mm | 0.89 m/s, 304° | 96 W/m² | - |
* Rain latest hour (hover to see other rain measurements)
** Current wind speed in m/s (hover to see current wind gust speed)